Regional Weather Roundup
Issued by NWS

Home | Current Version | Previous Version | Text Only | Print | Product List | Glossary On
Versions: 1 2 3 4 5 6 7 8 9 10 11 12 13 14 15 16 17 18 19 20 21 22 23 24 25 26 27 28 29 30 31 32 33 34 35 36 37 38 39 40 41 42 43 44 45 46 47 48 49 50
000
ASUS44 KFWD 261003
RWRTX
NORTH TEXAS HOURLY WEATHER ROUNDUP
NATIONAL WEATHER SERVICE FORT WORTH TX
500 AM CDT SAT JUL 26 2014

NOTE: "FAIR" INDICATES FEW OR NO CLOUDS BELOW 12,000 FEET WITH NO
SIGNIFICANT WEATHER AND/OR OBSTRUCTIONS TO VISIBILITY.

TXZ118-119-261100-
DALLAS/FORT WORTH METROPLEX

CITY           SKY/WX    TMP DP  RH WIND       PRES   REMARKS
DFW AIRPORT    CLEAR     81  70  69 S14       29.95R
DALLAS LOVE    CLEAR     81  70  69 S8        29.95S
FTW MEACHAM    CLEAR     81  70  69 S10       29.95R
DAL-EXECUTIVE  CLEAR     79  70  74 S6        29.96R
FTW-ALLIANCE   CLEAR     80  69  69 S8        29.94R
FTW-NAS-JRB    CLEAR     82  69  64 S13       29.99R
FTW-SPINKS     CLEAR     79  70  73 S8        29.97R
ARLINGTON      CLEAR     78  70  76 S7        29.96R
GRAND PRAIRIE  CLEAR     79  69  69 S7        29.97R
ADDISON        CLEAR     82  69  63 S6        29.97S
MESQUITE       CLEAR     73  70  90 S5        29.96S
LANCASTER      CLEAR     76  69  78 S5        29.97S
$$

TXZ091>094-102>105-117-120-121-131>134-261100-
NORTH CENTRAL TEXAS

CITY           SKY/WX    TMP DP  RH WIND       PRES   REMARKS
SHRMAN/DENISON CLEAR     76  69  79 S7        29.96S
GAINESVILLE    CLEAR     75  70  83 CALM      29.97S
BOWIE          CLEAR     74  69  85 SE5       29.96R
BRIDGEPORT     CLEAR     80  66  63 S10       29.96R
DECATUR        CLEAR     78  67  69 S10       29.96R
DENTON         CLEAR     76  70  82 S5        29.95R
MCKINNEY       CLEAR     78  70  76 S8        29.96R
GREENVILLE     CLEAR     77  70  78 S8        29.97R
ROCKWALL       CLEAR     76  72  85 S8        29.95S
TERRELL        CLEAR     76  73  91 S6        29.97R
WAXAHACHIE     CLEAR     75  68  78 S6        29.98S
CLEBURNE       CLEAR     77  73  88 SE7       29.99R
GRANBURY       CLEAR     81  69  67 SE7       29.97S
$$

TXZ083>090-098>101-113>116-127>130-139>142-154-155-261100-
WESTERN NORTH TEXAS

CITY           SKY/WX    TMP DP  RH WIND       PRES   REMARKS
WICHITA FALLS  CLEAR     77  66  68 S10       29.92R
WF-KICKAPOO    CLEAR     75  65  70 S7        29.94R
VERNON         CLEAR     77  63  61 S5        29.93S
ABILENE        CLEAR     80  64  58 S10       29.98S
ABILENE-DYESS  CLEAR     79  65  61 S13       29.97S
BRECKENRIDGE   CLEAR     80  65  59 S9        29.95S
GRAHAM         CLEAR     79  67  65 SE5       29.94R
MINERAL WELLS  CLEAR     74  68  81 SE8       29.95R
STEPHENVILLE   CLEAR     75  68  78 S3        30.01S
COMANCHE       CLEAR     78  67  69 S13G18    29.98S
BROWNWOOD      CLOUDY    75  66  73 SE7       30.00S
COLEMAN        CLEAR     74  64  69 S5        30.00S
BRADY          CLEAR     73  66  78 S6        30.01S
$$

TXZ143>147-156>162-174-175-261100-
CENTRAL TEXAS

CITY           SKY/WX    TMP DP  RH WIND       PRES   REMARKS
WACO           CLEAR     78  71  79 S10       29.98R
WACO-MCGREGOR  CLEAR     77  68  73 S8        30.00R
HILLSBORO      CLEAR     76  69  79 SE6       29.98S
CORSICANA      CLEAR     76  71  85 S8        29.99R
MEXIA          CLEAR     73  71  93 S5        29.98S
CAMERON        CLEAR     77  74  89 S8        29.99R
TEMPLE         CLEAR     75  66  73 S9        29.99S
KILLEEN        NOT AVBL
KILLEEN-SKYLRK CLEAR     77  66  69 S6        29.99S
FORT HOOD      CLEAR     79  72  79 S7        29.99S
GATESVILLE     CLEAR     79  70  73 S6        30.01R
HAMILTON       CLEAR     76  69  77 S9        30.00S
LAMPASAS       CLEAR     76  70  81 S3        29.99S
$$

TXZ095>097-106>112-122>126-135>138-148>153-164>167-261100-
EAST TEXAS

CITY           SKY/WX    TMP DP  RH WIND       PRES   REMARKS
PARIS          CLEAR     73  66  78 S5        29.97R
SULPHUR SPRNGS CLEAR     78  71  79 SW9       29.98R
CLARKSVILLE    PTCLDY    75  73  94 CALM      29.97R
MOUNT PLEASANT CLEAR     73  71  96 S3        29.99R
GILMER         CLEAR     75  73  94 S5        29.99S
MINEOLA        CLEAR     77  73  88 S6        29.98R
TYLER          CLEAR     77  72  84 S7        29.98S
LONGVIEW       CLEAR     76  72  87 SW7       29.98R
MARSHALL       CLEAR     76  74  92 CALM      30.01R
ATHENS         CLEAR     73  72  94 S3        29.97S
JACKSONVILLE   PTCLDY    76  73  91 SW5       30.02R
HENDERSON      CLEAR     75  74  95 CALM      30.00S
NACOGDOCHES    CLEAR     73  73 100 CALM      30.00S
LUFKIN         CLEAR     79  74  84 SW5       29.99S
$$

SUPPLEMENTAL OBSERVATIONS (CENTRAL)

CITY           SKY/WX    TMP DP  RH WIND       PRES   REMARKS
$$

SUPPLEMENTAL OBSERVATIONS (WEST)

CITY           SKY/WX    TMP DP  RH WIND       PRES   REMARKS
$$

SUPPLEMENTAL OBSERVATIONS (EAST)

CITY           SKY/WX    TMP DP  RH WIND       PRES   REMARKS
$$

SUPPLEMENTAL OBSERVATIONS ARE A COLLECTION OF AUTOMATED INSTRUMENTS
THAT ARE MAINTAINED BY A VARIETY OF FEDERAL AND STATE AGENCIES.
CERTAIN ELEMENTS...SUCH AS HUMIDITY VALUES AND SUSTAINED WIND
SPEEDS...MAY BE APPROXIMATED.




USA.gov is the U.S. government's official web portal to all federal, state and local government web resources and services.